Regional Weather Roundup
Issued by NWS

Current Version | Previous Version | Text Only | Print | Product List | Glossary On
Versions: 1 2 3 4 5 6 7 8 9 10 11 12 13 14 15 16 17 18 19 20 21 22 23 24 25 26 27 28 29 30 31 32 33 34 35 36 37 38 39 40 41 42 43 44 45 46 47 48 49 50
106
ASUS45 KREV 240110
RWRNV
NEVADA REGIONAL WEATHER ROUNDUP
NATIONAL WEATHER SERVICE RENO NV
600 PM PDT SAT JUL 23 2016

NOTE: "FAIR" INDICATES FEW OR NO CLOUDS BELOW 12,000 FEET WITH NO
SIGNIFICANT WEATHER AND/OR OBSTRUCTIONS TO VISIBILITY.

NVZ001-003-004-240200-
WESTERN NEVADA

CITY           SKY/WX    TMP DP  RH WIND       PRES   REMARKS
RENO           SUNNY     93  24   8 N7        30.04F
CARSON CITY    FAIR      91  16   6 W9        30.08F
MINDEN         FAIR      91  23   8 W13       30.08F
PYRAMID LAKE     N/A     88 N/A N/A VRB1        N/A
FALLON         SUNNY     95  13   5 NE7       30.00F
LOVELOCK       SUNNY     96  22   7 VRB5      30.01F
HAWTHORNE      SUNNY     95  18   6 NW15G21   30.01F
$$

NVZ002-CAZ072-073-240200-
NORTHERN AND CENTRAL SIERRA

CITY           SKY/WX    TMP DP  RH WIND       PRES   REMARKS
S. LAKE TAHOE  SUNNY     82  27  13 MISG      30.21F
TRUCKEE        SUNNY     84  27  12 W13       30.19F
SQUAW VLY 8000 NOT AVBL
MAMMOTH LAKES    N/A     86  19   8 W17       30.24F
BRIDGEPORT       N/A     85  16   7 SW12      30.20F
$$

NVZ030-031-036-240200-
NORTHERN NEVADA

CITY           SKY/WX    TMP DP  RH WIND       PRES   REMARKS
ELKO           SUNNY     90   8   4 W15G21    30.08F
WINNEMUCCA     SUNNY     90  17   7 N8        30.06F
WENDOVER       SUNNY     90  28  11 E9        30.02F
$$

NVZ035-037-240200-
CENTRAL NEVADA

CITY           SKY/WX    TMP DP  RH WIND       PRES   REMARKS
ELY            SUNNY     91  12   5 SW7G20    30.11F
EUREKA           N/A     90  11   5 N17G24    30.11F
$$

NVZ013-014-240200-
SOUTH CENTRAL NEVADA

CITY           SKY/WX    TMP DP  RH WIND       PRES   REMARKS
TONOPAH        SUNNY     96  12   4 N8        30.06F
$$

NVZ017-020-022-240200-
SOUTHERN NEVADA

CITY           SKY/WX    TMP DP  RH WIND       PRES   REMARKS
LAS VEGAS      SUNNY    111  26   5 SW14G21   29.71F
N. LAS VEGAS   SUNNY    110  34   7 SW15      29.73F
NELLIS AFB     SUNNY    110  34   7 SW14      29.70S
HENDERSON      SUNNY    108  40  10 SW9G22    29.79F
MERCURY        SUNNY    105  31   7 SW17      29.85F
$$




USA.gov is the U.S. government's official web portal to all federal, state and local government web resources and services.